Content
SEND FEEDBACK

Daily
Averages
Monthly
Summary
United States of America

MANGILAO, GUAM


Home > North America > United States > Guam
Elevation: 60 feet     Latitude: 13 27N     Longitude: 144 49E

WEATHER
 
SELECT A DAY
Number of Records: 342,038;   Date Range: 1/1/95 - 7/29/14
 
SHARE

PRINT THIS DATA

[ ← Previous Day ]
WEATHER ALMANAC - MARCH 2, 2013
[ Next Day → ]
[ °C ]   °F
Weather ElementAverageHighLow
Temperature79.6 °F84.2 °F (11:05 am)75.2 °F (4:50 am)
Dewpoint74.1 °F75.4 °F (11:55 pm)71.6 °F (4:50 am)
Humidity83.7 %94 % (5:03 am)70 % (11:05 am)
Barometer29.83 in29.89 in (9:51 am)29.78 in (3:36 pm)
Wind Speed11.9 mph15 mph (4:53 am)
Wind Gust21.9 mph (4:50 am)
Weather ElementAverage
Visibility10 mi
Wind DirectionENE (65.4 °)

Weather ElementTotal
Precipitation---
Cooling Degree Days14.7 (Base 65)
Growing Degree Days29.7 (Base 50)
Averaged from 121 records on March 2, 2013
WEATHER CONDITIONS BREAKOUT
WIND DIRECTION BREAKOUT
WEATHER BY HOUR - MARCH 2, 2013
[ °C ]   °F
Local TimeTemperatureDewpointHumidityBarometerVisibilityWind DirectionWind SpeedGust SpeedPrecipitationEventsConditions
1:45 AM77.0 °F73.4 °F89 %29.84 in10.0 miENE (60°)11.5 mphMostly Cloudy
1:49 AM77.0 °F73.4 °F89 %29.84 in10.0 miENE (60°)13.8 mphMostly Cloudy
1:53 AM77.0 °F73.4 °F89 %29.84 in10.0 miENE (60°)13.8 mphMostly Cloudy
1:55 AM77.0 °F72.9 °F87 %29.84 in10.0 miENE (60°)12.7 mphMostly Cloudy
2:02 AM77.0 °F73.4 °F89 %29.83 in10.0 miENE (60°)13.8 mphScattered Clouds
2:04 AM77.0 °F73.4 °F89 %29.84 in10.0 miENE (60°)13.8 mphMostly Cloudy
2:09 AM77.0 °F73.4 °F89 %29.83 in10.0 miENE (60°)13.8 mphMostly Cloudy
2:11 AM77.0 °F73.4 °F89 %29.83 in10.0 miENE (60°)13.8 mphScattered Clouds
2:55 AM76.8 °F72.7 °F87 %29.83 in10.0 miNE (50°)12.7 mphPartly Cloudy
3:55 AM77.0 °F72.9 °F87 %29.82 in10.0 miNE (50°)13.8 mphScattered Clouds
4:16 AM77.0 °F73.4 °F89 %29.82 in10.0 miNE (40°)13.8 mphMostly Cloudy
4:23 AM77.0 °F73.4 °F89 %29.82 in10.0 miNE (50°)13.8 mphLight Drizzle
4:25 AM77.0 °F73.4 °F89 %29.82 in10.0 miNE (40°)13.8 mphLight Drizzle
4:32 AM77.0 °F73.4 °F89 %29.82 in10.0 miNE (50°)12.7 mphMostly Cloudy
4:39 AM77.0 °F73.4 °F89 %29.82 in10.0 miNE (50°)13.8 mphMostly Cloudy
4:41 AM77.0 °F73.4 °F89 %29.82 in10.0 miENE (60°)12.7 mphMostly Cloudy
4:50 AM75.2 °F71.6 °F89 %29.82 in10.0 miEast (80°)12.7 mph21.9 mphMostly Cloudy
4:51 AM75.2 °F71.6 °F89 %29.82 in10.0 miENE (70°)13.8 mphMostly Cloudy
4:53 AM75.2 °F71.6 °F89 %29.82 in10.0 miEast (80°)15.0 mphMostly Cloudy
4:55 AM75.4 °F72.0 °F89 %29.82 in10.0 miEast (80°)15.0 mph0.00 inMostly Cloudy
4:58 AM75.2 °F71.6 °F89 %29.82 in10.0 miENE (70°)13.8 mphMostly Cloudy
5:00 AM75.2 °F71.6 °F89 %29.82 in10.0 miENE (60°)12.7 mphMostly Cloudy
5:03 AM75.2 °F73.4 °F94 %29.82 in10.0 miENE (60°)10.4 mphMostly Cloudy
5:08 AM75.2 °F73.4 °F94 %29.82 in9.0 miENE (60°)9.2 mphLight Drizzle
5:14 AM75.2 °F73.4 °F94 %29.83 in9.0 miNE (50°)9.2 mphLight Drizzle
5:17 AM75.2 °F73.4 °F94 %29.82 in10.0 miNE (40°)10.4 mphOvercast
5:55 AM75.7 °F72.9 °F91 %29.83 in10.0 miNE (50°)10.4 mph0.00 inScattered Clouds
6:55 AM76.3 °F72.9 °F89 %29.84 in10.0 miENE (60°)9.2 mphClear
7:55 AM77.4 °F73.4 °F88 %29.86 in10.0 miENE (60°)12.7 mphScattered Clouds
8:47 AM78.8 °F73.4 °F83 %29.88 in10.0 miENE (60°)13.8 mphMostly Cloudy
8:51 AM78.8 °F73.4 °F83 %29.88 in10.0 miENE (60°)12.7 mphScattered Clouds
8:55 AM79.7 °F73.8 °F82 %29.88 in10.0 miENE (60°)12.7 mphScattered Clouds
9:05 AM80.6 °F75.2 °F84 %29.88 in10.0 miENE (60°)12.7 mphMostly Cloudy
9:07 AM80.6 °F75.2 °F84 %29.88 in10.0 miENE (60°)13.8 mphMostly Cloudy
9:51 AM80.6 °F75.2 °F84 %29.89 in10.0 miENE (70°)13.8 mphScattered Clouds
9:55 AM81.7 °F74.7 °F79 %29.89 in10.0 miEast (80°)12.7 mphScattered Clouds
9:59 AM82.4 °F75.2 °F79 %29.89 in10.0 miENE (60°)12.7 mphMostly Cloudy
10:12 AM82.4 °F75.2 °F79 %29.89 in10.0 miEast (80°)13.8 mphScattered Clouds
10:55 AM83.5 °F74.1 °F73 %29.88 in10.0 miENE (60°)12.7 mphPartly Cloudy
11:05 AM84.2 °F73.4 °F70 %29.87 in10.0 miENE (70°)12.7 mphMostly Cloudy
11:55 AM83.7 °F74.3 °F73 %29.86 in10.0 miENE (70°)13.8 mphMostly Cloudy
12:23 PM84.2 °F73.4 °F70 %29.84 in10.0 miENE (60°)13.8 mphMostly Cloudy
12:38 PM84.2 °F73.4 °F70 %29.84 in10.0 miENE (60°)12.7 mphMostly Cloudy
12:55 PM83.3 °F74.5 °F75 %29.83 in10.0 miENE (60°)13.8 mphMostly Cloudy
1:11 PM82.4 °F73.4 °F74 %29.83 in10.0 miNE (50°)13.8 mphMostly Cloudy
1:12 PM82.4 °F73.4 °F74 %29.83 in10.0 miNE (50°)13.8 mphMostly Cloudy
1:14 PM82.4 °F73.4 °F74 %29.83 in10.0 miENE (70°)15.0 mph20.7 mphMostly Cloudy
1:15 PM82.4 °F73.4 °F74 %29.83 in10.0 miENE (60°)13.8 mph20.7 mphMostly Cloudy
1:22 PM84.2 °F73.4 °F70 %29.83 in10.0 miENE (60°)12.7 mphScattered Clouds
1:26 PM84.2 °F73.4 °F70 %29.83 in10.0 miENE (60°)15.0 mphMostly Cloudy
1:36 PM84.2 °F75.2 °F74 %29.82 in10.0 miENE (70°)12.7 mphScattered Clouds
1:38 PM84.2 °F75.2 °F74 %29.82 in10.0 miENE (70°)12.7 mphMostly Cloudy
1:40 PM84.2 °F75.2 °F74 %29.82 in10.0 miENE (70°)13.8 mphMostly Cloudy
1:45 PM82.4 °F75.2 °F79 %29.82 in10.0 miEast (80°)13.8 mphMostly Cloudy
1:48 PM82.4 °F73.4 °F74 %29.82 in10.0 miENE (70°)12.7 mphMostly Cloudy
1:49 PM82.4 °F73.4 °F74 %29.82 in10.0 miENE (70°)13.8 mphMostly Cloudy
1:53 PM82.4 °F75.2 °F79 %29.82 in10.0 miEast (80°)12.7 mphMostly Cloudy
1:55 PM83.3 °F74.7 °F75 %29.82 in10.0 miEast (80°)12.7 mphMostly Cloudy
2:11 PM82.4 °F75.2 °F79 %29.81 in10.0 miEast (80°)13.8 mphScattered Clouds
2:14 PM82.4 °F73.4 °F74 %29.81 in10.0 miEast (80°)13.8 mphMostly Cloudy
2:21 PM82.4 °F75.2 °F79 %29.81 in10.0 miENE (60°)13.8 mphMostly Cloudy
2:30 PM82.4 °F73.4 °F74 %29.81 in10.0 miENE (70°)12.7 mphMostly Cloudy
2:37 PM82.4 °F75.2 °F79 %29.80 in10.0 miENE (60°)13.8 mphMostly Cloudy
2:55 PM82.0 °F74.5 °F78 %29.79 in10.0 miENE (70°)13.8 mphMostly Cloudy
2:59 PM82.4 °F73.4 °F74 %29.79 in10.0 miENE (70°)10.4 mphMostly Cloudy
3:05 PM82.4 °F73.4 °F74 %29.79 in10.0 miNE (50°)12.7 mphMostly Cloudy
3:20 PM82.4 °F75.2 °F79 %29.79 in10.0 miEast (80°)11.5 mphMostly Cloudy
3:22 PM80.6 °F75.2 °F84 %29.79 in10.0 miEast (80°)12.7 mphMostly Cloudy
3:25 PM82.4 °F75.2 °F79 %29.79 in10.0 miENE (70°)11.5 mphMostly Cloudy
3:32 PM82.4 °F75.2 °F79 %29.79 in10.0 miEast (80°)12.7 mphMostly Cloudy
3:36 PM82.4 °F75.2 °F79 %29.78 in10.0 miENE (70°)9.2 mphScattered Clouds
3:39 PM82.4 °F75.2 °F79 %29.78 in10.0 miENE (70°)12.7 mphMostly Cloudy
3:42 PM82.4 °F73.4 °F74 %29.78 in10.0 miEast (80°)12.7 mphScattered Clouds
3:55 PM82.0 °F74.5 °F78 %29.79 in10.0 miENE (70°)12.7 mphMostly Cloudy
4:32 PM82.4 °F75.2 °F79 %29.79 in10.0 miNE (50°)12.7 mphMostly Cloudy
4:39 PM80.6 °F75.2 °F84 %29.79 in10.0 miENE (70°)10.4 mphMostly Cloudy
4:43 PM80.6 °F75.2 °F84 %29.79 in10.0 miNE (50°)10.4 mphOvercast
4:49 PM80.6 °F75.2 °F84 %29.79 in10.0 miENE (60°)9.2 mphOvercast
4:55 PM80.6 °F74.7 °F82 %29.79 in10.0 miENE (60°)11.5 mphOvercast
5:29 PM80.6 °F75.2 °F84 %29.80 in10.0 miENE (60°)11.5 mphOvercast
5:32 PM80.6 °F75.2 °F84 %29.80 in10.0 miENE (70°)10.4 mphOvercast
5:34 PM80.6 °F75.2 °F84 %29.80 in10.0 miENE (60°)10.4 mphOvercast
5:42 PM78.8 °F73.4 °F83 %29.80 in10.0 miENE (70°)11.5 mphMostly Cloudy
5:48 PM78.8 °F75.2 °F89 %29.80 in10.0 miENE (60°)12.7 mphMostly Cloudy
5:55 PM79.5 °F74.8 °F86 %29.80 in10.0 miENE (60°)10.4 mphMostly Cloudy
6:09 PM78.8 °F73.4 °F83 %29.81 in10.0 miENE (70°)9.2 mphMostly Cloudy
6:19 PM78.8 °F73.4 °F83 %29.81 in10.0 miENE (70°)8.1 mphMostly Cloudy
6:21 PM78.8 °F73.4 °F83 %29.81 in10.0 miENE (70°)11.5 mphMostly Cloudy
6:25 PM78.8 °F73.4 °F83 %29.81 in10.0 miENE (70°)9.2 mphScattered Clouds
6:27 PM78.8 °F73.4 °F83 %29.81 in10.0 miENE (70°)8.1 mphMostly Cloudy
6:33 PM78.8 °F73.4 °F83 %29.81 in10.0 miEast (80°)10.4 mphScattered Clouds
6:54 PM78.8 °F73.4 °F83 %29.81 in10.0 miEast (80°)11.5 mphMostly Cloudy
6:55 PM78.1 °F73.9 °F87 %29.81 in10.0 miENE (70°)10.4 mphMostly Cloudy
6:59 PM77.0 °F73.4 °F89 %29.81 in10.0 miEast (80°)11.5 mphScattered Clouds
7:15 PM77.0 °F73.4 °F89 %29.82 in10.0 miENE (70°)11.5 mphMostly Cloudy
7:17 PM77.0 °F73.4 °F89 %29.82 in10.0 miENE (70°)10.4 mphScattered Clouds
7:55 PM77.9 °F74.1 °F88 %29.83 in10.0 miENE (70°)11.5 mphOvercast
8:17 PM78.8 °F75.2 °F89 %29.83 in10.0 miENE (70°)12.7 mphOvercast
8:20 PM78.8 °F75.2 °F89 %29.84 in10.0 miEast (80°)11.5 mphMostly Cloudy
8:35 PM78.8 °F75.2 °F89 %29.84 in10.0 miEast (80°)10.4 mphMostly Cloudy
8:36 PM78.8 °F75.2 °F89 %29.84 in10.0 miENE (70°)10.4 mphMostly Cloudy
8:37 PM78.8 °F75.2 °F89 %29.84 in10.0 miENE (70°)10.4 mphMostly Cloudy
8:39 PM78.8 °F75.2 °F89 %29.84 in10.0 miENE (70°)10.4 mphMostly Cloudy
8:47 PM78.8 °F75.2 °F89 %29.84 in10.0 miENE (70°)10.4 mphMostly Cloudy
8:55 PM78.4 °F74.7 °F88 %29.85 in10.0 miENE (70°)10.4 mphOvercast
8:56 PM78.8 °F75.2 °F89 %29.85 in10.0 miENE (70°)10.4 mphOvercast
8:59 PM78.8 °F75.2 °F89 %29.85 in10.0 miENE (70°)10.4 mphOvercast
9:14 PM78.8 °F75.2 °F89 %29.85 in10.0 miENE (70°)10.4 mphOvercast
9:55 PM78.4 °F75.0 °F89 %29.85 in10.0 miENE (60°)9.2 mphMostly Cloudy
9:57 PM78.8 °F75.2 °F89 %29.84 in10.0 miENE (60°)9.2 mphMostly Cloudy
10:00 PM78.8 °F75.2 °F89 %29.84 in10.0 miENE (60°)10.4 mphMostly Cloudy
10:06 PM78.8 °F75.2 °F89 %29.84 in10.0 miENE (60°)10.4 mphOvercast
10:08 PM78.8 °F75.2 °F89 %29.84 in10.0 miENE (70°)9.2 mphMostly Cloudy
10:11 PM78.8 °F75.2 °F89 %29.84 in10.0 miENE (70°)9.2 mphMostly Cloudy
10:15 PM78.8 °F75.2 °F89 %29.84 in10.0 miENE (60°)9.2 mphMostly Cloudy
10:30 PM78.8 °F75.2 °F89 %29.84 in10.0 miENE (70°)10.4 mphMostly Cloudy
10:32 PM78.8 °F75.2 °F89 %29.84 in10.0 miENE (70°)10.4 mphMostly Cloudy
10:35 PM78.8 °F75.2 °F89 %29.84 in10.0 miENE (70°)8.1 mphMostly Cloudy
10:41 PM78.8 °F75.2 °F89 %29.84 in10.0 miENE (60°)9.2 mphMostly Cloudy
10:55 PM78.3 °F75.0 °F90 %29.84 in10.0 miENE (60°)9.2 mphOvercast
11:55 PM78.4 °F75.4 °F90 %29.83 in10.0 miENE (70°)10.4 mphMostly Cloudy
Hourly data recorded from PGUA, located miles away from Mangilao, Guam







STORIES FROM OUR PARTNERS